FW3213 Weather Reports


Display with metric or nautical units.
time (UTC)temp
F
wind
direction
speed
MPH
gust
MPH
rain 1hr
in
rain 24hr
in
rain mn
in
humidity
%
barometer
mb
20210917231130 63 135 2.0 3.0 0.00 0.00 0.00 33 1048.2
20210917230129 65 180 1.0 3.0 0.00 0.00 0.00 30 1048.2
20210917230028 65 131 0.0 2.0 0.00 0.00 0.00 30 1048.3
20210917225945 65 112 1.0 2.0 0.00 0.00 0.00 29 1048.2
20210917224929 67 112 2.0 4.0 0.00 0.00 0.00 28 1047.9
20210917224829 67 112 3.0 4.0 0.00 0.00 0.00 28 1048.0
20210917224729 67 112 2.0 5.0 0.00 0.00 0.00 28 1048.1
20210917223728 68 112 2.0 4.0 0.00 0.00 0.00 28 1047.9
20210917222728 65 112 2.0 4.0 0.00 0.00 0.00 28 1047.8
20210917221729 65 112 2.0 5.0 0.00 0.00 0.00 28 1047.7
20210917220728 66 112 2.0 4.0 0.00 0.00 0.00 27 1047.7
20210917220628 66 112 3.0 5.0 0.00 0.00 0.00 26 1047.6
20210917215629 68 139 2.0 4.0 0.00 0.00 0.00 24 1047.4
20210917214631 70 127 3.0 6.0 0.00 0.00 0.00 22 1047.3
20210917213729 72 112 2.0 4.0 0.00 0.00 0.00 21 1046.9
20210917212727 71 142 2.0 4.0 0.00 0.00 0.00 20 1046.9
20210917212646 72 133 3.0 5.0 0.00 0.00 0.00 20 1047.0
20210917211727 73 127 4.0 8.0 0.00 0.00 0.00 19 1046.8
20210917210729 71 131 3.0 5.0 0.00 0.00 0.00 20 1046.9
20210917205728 71 112 1.0 3.0 0.00 0.00 0.00 20 1046.9
20210917204729 69 112 2.0 3.0 0.00 0.00 0.00 21 1047.0
20210917203745 69 112 3.0 4.0 0.00 0.00 0.00 20 1047.1
20210917202728 71 136 2.0 3.0 0.00 0.00 0.00 19 1047.0
20210917201727 72 110 5.0 9.0 0.00 0.00 0.00 19 1047.1
20210917200729 73 126 3.0 5.0 0.00 0.00 0.00 21 1047.1
20210917200626 73 193 3.0 5.0 0.00 0.00 0.00 21 1047.0
20210917195629 71 128 3.0 5.0 0.00 0.00 0.00 22 1047.4
20210917194726 69 116 4.0 6.0 0.00 0.00 0.00 23 1047.4
20210917193728 68 112 3.0 5.0 0.00 0.00 0.00 21 1047.7
20210917193633 68 112 3.0 5.0 0.00 0.00 0.00 22 1047.5
20210917192630 68 112 4.0 5.0 0.00 0.00 0.00 25 1047.6
20210917191628 67 116 2.0 6.0 0.00 0.00 0.00 25 1047.6
20210917191528 67 112 3.0 4.0 0.00 0.00 0.00 25 1047.6
20210917190528 66 112 3.0 6.0 0.00 0.00 0.00 24 1047.7
20210917185532 70 161 1.0 4.0 0.00 0.00 0.00 23 1047.6
20210917185429 71 139 2.0 4.0 0.00 0.00 0.00 23 1047.5
20210917185345 71 112 4.0 8.0 0.00 0.00 0.00 23 1047.4
20210917184428 72 112 1.0 4.0 0.00 0.00 0.00 24 1047.6
20210917183444 71 114 3.0 5.0 0.00 0.00 0.00 24 1047.6
20210917182526 70 121 3.0 5.0 0.00 0.00 0.00 26 1047.7
20210917182428 70 112 3.0 6.0 0.00 0.00 0.00 26 1047.9
20210917181428 69 112 2.0 4.0 0.00 0.00 0.00 26 1047.9
20210917180527 68 171 3.0 4.0 0.00 0.00 0.00 29 1048.2
20210917175527 66 112 2.0 3.0 0.00 0.00 0.00 30 1048.2
20210917174527 65 112 3.0 5.0 0.00 0.00 0.00 32 1048.3
20210917173529 66 112 4.0 5.0 0.00 0.00 0.00 34 1048.2
20210917172528 63 176 0.0 2.0 0.00 0.00 0.00 36 1048.3
20210917172428 63 112 2.0 3.0 0.00 0.00 0.00 36 1048.2
20210917171428 63 112 3.0 4.0 0.00 0.00 0.00 37 1048.5
20210917170444 62 182 0.0 2.0 0.00 0.00 0.00 38 1048.5
20210917165527 62 112 2.0 4.0 0.00 0.00 0.00 39 1048.5
20210917165428 61 112 1.0 2.0 0.00 0.00 0.00 39 1048.4
20210917164428 60 112 2.0 5.0 0.00 0.00 0.00 41 1048.5
20210917163428 59 112 2.0 4.0 0.00 0.00 0.00 44 1048.7
20210917162446 57 112 2.0 4.0 0.00 0.00 0.00 47 1048.5
20210917161528 56 167 1.0 3.0 0.00 0.00 0.00 49 1048.7
20210917161428 56 112 1.0 3.0 0.00 0.00 0.00 50 1048.7
20210917160527 54 177 0.0 1.0 0.00 0.00 0.00 53 1048.7
20210917155545 52 185 0.0 1.0 0.00 0.00 0.00 55 1048.6
20210917154527 51 151 1.0 3.0 0.00 0.00 0.00 57 1048.6
20210917153527 50 112 1.0 4.0 0.00 0.00 0.00 59 1048.5
20210917152529 49 112 0.0 2.0 0.00 0.00 0.00 62 1048.6
20210917152427 49 112 1.0 2.0 0.00 0.00 0.00 63 1048.5
20210917151428 47 167 1.0 1.0 0.00 0.00 0.00 67 1048.4
20210917150429 45 157 0.0 1.0 0.00 0.00 0.00 69 1048.3
20210917145429 44 135 0.0 2.0 0.00 0.00 0.00 72 1048.3
20210917144429 42 22 0.0 0.0 0.00 0.00 0.00 75 1048.2
20210917143526 41 22 0.0 0.0 0.00 0.00 0.00 75 1048.1
20210917142528 39 22 0.0 0.0 0.00 0.00 0.00 75 1048.2
20210917142428 39 22 0.0 0.0 0.00 0.00 0.00 75 1048.1
20210917142330 38 22 0.0 0.0 0.00 0.00 0.00 75 1048.1
20210917141428 37 22 0.0 0.0 0.00 0.00 0.00 76 1048.2
20210917140445 36 22 0.0 0.0 0.00 0.00 0.00 78 1047.9
20210917135527 35 22 0.0 0.0 0.00 0.00 0.00 78 1047.9
20210917134527 34 22 0.0 0.0 0.00 0.00 0.00 78 1047.7
20210917133526 34 22 0.0 0.0 0.00 0.00 0.00 78 1047.7
20210917132528 34 22 0.0 0.0 0.00 0.00 0.00 76 1047.7
20210917132429 34 22 0.0 0.0 0.00 0.00 0.00 76 1047.7
20210917132329 34 22 0.0 0.0 0.00 0.00 0.00 76 1047.7
20210917131328 34 22 0.0 0.0 0.00 0.00 0.00 74 1047.6
20210917131245 34 22 0.0 1.0 0.00 0.00 0.00 75 1047.5
20210917130229 34 22 0.0 0.0 0.00 0.00 0.00 76 1047.4
20210917125243 34 22 0.0 0.0 0.00 0.00 0.00 75 1047.2
20210917124327 34 22 0.0 0.0 0.00 0.00 0.00 73 1047.0
20210917123329 35 22 0.0 0.0 0.00 0.00 0.00 73 1047.0
20210917122327 35 22 0.0 0.0 0.00 0.00 0.00 72 1047.0
20210917121327 35 22 0.0 0.0 0.00 0.00 0.00 69 1047.0
20210917121229 35 22 0.0 0.0 0.00 0.00 0.00 69 1046.9
20210917120227 36 22 0.0 0.0 0.00 0.00 0.00 67 1046.9
20210917115227 36 22 0.0 0.0 0.00 0.00 0.00 65 1046.6
20210917114327 36 22 0.0 0.0 0.00 0.00 0.00 63 1046.9
20210917114226 37 22 0.0 0.0 0.00 0.00 0.00 63 1046.8
20210917113227 37 22 0.0 0.0 0.00 0.00 0.00 64 1046.6
20210917112227 38 22 0.0 0.0 0.00 0.00 0.00 60 1046.9
20210917111327 39 22 0.0 0.0 0.00 0.00 0.00 57 1046.6
20210917111226 39 22 0.0 0.0 0.00 0.00 0.00 56 1046.8
20210917110227 40 22 0.0 0.0 0.00 0.00 0.00 55 1046.6
20210917110128 40 22 0.0 0.0 0.00 0.00 0.00 55 1046.7
20210917110044 40 22 0.0 0.0 0.00 0.00 0.00 56 1046.6
20210917105028 41 22 0.0 0.0 0.00 0.00 0.00 54 1046.6
20210917104126 41 22 0.0 0.0 0.00 0.00 0.00 52 1046.7
20210917103128 42 22 0.0 0.0 0.00 0.00 0.00 51 1046.5
20210917103030 42 22 0.0 0.0 0.00 0.00 0.00 51 1046.4
20210917102926 42 22 0.0 0.0 0.00 0.00 0.00 51 1046.5
20210917101927 43 22 0.0 0.0 0.00 0.00 0.00 52 1046.2
20210917101826 43 22 0.0 0.0 0.00 0.00 0.00 52 1046.2
20210917101729 43 22 0.0 0.0 0.00 0.00 0.00 51 1046.3
20210917100728 43 22 0.0 0.0 0.00 0.00 0.00 50 1046.1
20210917100626 43 22 0.0 0.0 0.00 0.00 0.00 50 1046.2
20210917095627 44 22 0.0 0.0 0.00 0.00 0.00 51 1046.2
20210917094630 45 22 0.0 0.0 0.00 0.00 0.00 50 1046.0
20210917093727 45 22 0.0 0.0 0.00 0.00 0.00 48 1046.0
20210917092627 46 22 0.0 0.0 0.00 0.00 0.00 46 1045.8
20210917091726 46 22 0.0 0.0 0.00 0.00 0.00 44 1045.8
20210917090727 47 22 0.0 0.0 0.00 0.00 0.00 43 1045.7
20210917090628 47 22 0.0 0.0 0.00 0.00 0.00 43 1045.6
20210917085726 48 90 0.0 0.0 0.00 0.00 0.00 41 1045.3
20210917084727 49 90 0.0 0.0 0.00 0.00 0.00 40 1045.2
20210917083726 50 90 0.0 2.0 0.00 0.00 0.00 38 1045.2
20210917082727 51 90 0.0 0.0 0.00 0.00 0.00 38 1045.1
20210917081727 51 112 0.0 1.0 0.00 0.00 0.00 38 1044.8
20210917080726 51 292 0.0 0.0 0.00 0.00 0.00 37 1044.4
20210917075730 51 211 4.0 7.0 0.00 0.00 0.00 36 1044.4
20210917074727 50 332 1.0 3.0 0.00 0.00 0.00 34 1044.1
20210917073730 48 91 1.0 4.0 0.00 0.00 0.00 35 1044.0
20210917073643 47 157 0.0 3.0 0.00 0.00 0.00 35 1044.0
20210917072727 47 315 0.0 0.0 0.00 0.00 0.00 33 1043.7
20210917071728 50 315 0.0 0.0 0.00 0.00 0.00 31 1043.5
20210917071630 50 315 0.0 0.0 0.00 0.00 0.00 31 1043.6
20210917070727 50 315 0.0 0.0 0.00 0.00 0.00 29 1043.5
20210917070627 51 315 0.0 0.0 0.00 0.00 0.00 30 1043.5
20210917065627 53 90 0.0 0.0 0.00 0.00 0.00 28 1043.3
20210917064628 53 90 0.0 0.0 0.00 0.00 0.00 28 1043.0
20210917063726 53 67 0.0 1.0 0.00 0.00 0.00 28 1043.0
20210917062727 54 67 0.0 0.0 0.00 0.00 0.00 28 1042.7
20210917061726 54 45 1.0 1.0 0.00 0.00 0.00 29 1042.6
20210917060729 54 45 0.0 0.0 0.00 0.00 0.00 28 1042.5
20210917055737 54 45 0.0 0.0 0.00 0.00 0.00 28 1042.5
20210917054736 53 45 0.0 0.0 0.00 0.00 0.00 28 1042.3
20210917053736 54 45 0.0 0.0 0.00 0.00 0.00 27 1042.2
20210917053634 54 45 0.0 0.0 0.00 0.00 0.00 28 1042.1
20210917053537 54 45 0.0 0.0 0.00 0.00 0.00 28 1042.1
20210917053437 54 45 0.0 0.0 0.00 0.00 0.00 27 1042.3
20210917052534 54 45 0.0 0.0 0.00 0.00 0.00 28 1042.3
20210917052435 54 45 0.0 0.0 0.00 0.00 0.00 28 1042.2
20210917051436 55 112 0.0 0.0 0.00 0.00 0.00 27 1042.1
20210917050437 56 112 0.0 0.0 0.00 0.00 0.00 25 1042.1
20210917045536 57 112 0.0 0.0 0.00 0.00 0.00 26 1042.0
20210917045438 57 112 0.0 0.0 0.00 0.00 0.00 26 1042.0
20210917045352 57 112 1.0 3.0 0.00 0.00 0.00 26 1041.9
20210917044335 56 112 1.0 2.0 0.00 0.00 0.00 25 1041.9
20210917043336 57 112 2.0 2.0 0.00 0.00 0.00 26 1041.9
20210917043238 57 112 1.0 2.0 0.00 0.00 0.00 26 1041.8
20210917043136 57 112 1.0 1.0 0.00 0.00 0.00 26 1041.6
20210917043034 57 112 0.0 1.0 0.00 0.00 0.00 25 1041.7
20210917042938 57 112 0.0 0.0 0.00 0.00 0.00 25 1041.8
20210917041953 57 112 0.0 1.0 0.00 0.00 0.00 24 1041.6
20210917041837 57 112 1.0 1.0 0.00 0.00 0.00 25 1041.7
20210917041751 57 112 0.0 0.0 0.00 0.00 0.00 24 1041.8
20210917040837 58 22 0.0 0.0 0.00 0.00 0.00 24 1041.7
20210917035835 59 332 1.0 3.0 0.00 0.00 0.00 24 1041.6
20210917034934 59 337 0.0 1.0 0.00 0.00 0.00 24 1041.5
20210917033937 59 334 2.0 4.0 0.00 0.00 0.00 23 1041.5
20210917032938 58 337 2.0 3.0 0.00 0.00 0.00 24 1041.3
20210917032837 58 337 1.0 3.0 0.00 0.00 0.00 24 1041.2
20210917031934 59 315 0.0 0.0 0.00 0.00 0.00 24 1041.4
20210917031834 59 315 0.0 1.0 0.00 0.00 0.00 24 1041.2
20210917030836 58 337 2.0 4.0 0.00 0.00 0.00 24 1041.2
20210917025837 58 337 0.0 1.0 0.00 0.00 0.00 24 1041.1
20210917024835 58 337 0.0 0.0 0.00 0.00 0.00 24 1041.1
20210917024737 58 337 0.0 0.0 0.00 0.00 0.00 24 1041.1
20210917023735 58 67 0.0 0.0 0.00 0.00 0.00 22 1040.9
20210917022753 58 67 0.0 0.0 0.00 0.00 0.00 23 1040.8
20210917021835 59 67 0.0 2.0 0.00 0.00 0.00 23 1040.7
20210917020836 59 67 0.0 0.0 0.00 0.00 0.00 22 1040.7
20210917015837 59 337 0.0 0.0 0.00 0.00 0.00 22 1040.5
20210917014934 60 337 0.0 0.0 0.00 0.00 0.00 21 1040.3
20210917013954 61 337 0.0 0.0 0.00 0.00 0.00 21 1040.3
20210917013036 62 337 0.0 0.0 0.00 0.00 0.00 19 1040.3
20210917012037 64 337 0.0 1.0 0.00 0.00 0.00 19 1039.9
20210917011134 64 337 3.0 5.0 0.00 0.00 0.00 18 1039.9
20210917010136 66 332 4.0 5.0 0.00 0.00 0.00 17 1039.7
20210917010038 66 318 3.0 4.0 0.00 0.00 0.00 17 1039.8
20210917005937 66 337 3.0 4.0 0.00 0.00 0.00 16 1039.7
20210917004935 67 315 1.0 2.0 0.00 0.00 0.00 16 1039.5
20210917003935 69 270 1.0 1.0 0.00 0.00 0.00 16 1039.5
20210917002936 70 292 2.0 4.0 0.00 0.00 0.00 16 1039.3
20210917001935 70 292 2.0 3.0 0.00 0.00 0.00 15 1039.3
20210917000936 70 270 3.0 5.0 0.00 0.00 0.00 16 1039.1
20210916235936 70 269 1.0 2.0 0.00 0.00 0.00 15 1039.0
20210916234935 71 292 1.0 3.0 0.00 0.00 0.00 15 1039.0
20210916234835 71 292 0.0 2.0 0.00 0.00 0.00 15 1038.9
20210916233834 70 292 3.0 5.0 0.00 0.00 0.00 15 1038.7
20210916232852 70 247 0.0 2.0 0.00 0.00 0.00 16 1038.7
20210916231934 71 292 3.0 4.0 0.00 0.00 0.00 16 1038.6
20210916231850 71 292 3.0 5.0 0.00 0.00 0.00 16 1038.7
20210916231736 71 292 3.0 4.0 0.00 0.00 0.00 16 1038.5